Location: Unspecified
(47.2333°N, 39.7000°E)
Time: 21:52:44
(UTC+00:00)

ISS - Visible Passes

Search period start: 05 May 2021 00:00
Search period end: 15 May 2021 00:00
Orbit: 418 x 421 km, 51.6° (Epoch: 05 May)

Date Brightness Start Highest point End Pass type
(mag) Time Alt. Az. Time Alt. Az. Time Alt. Az.
05 May -3.6 23:15:23 74° NNE 23:15:23 74° NNE 23:18:35 10° ENE visible
06 May -2.4 00:49:06 10° WNW 00:52:17 37° N 00:55:29 10° ENE visible
06 May -1.9 22:29:28 27° ENE 22:29:28 27° ENE 22:31:08 10° ENE visible
07 May -2.6 00:02:24 16° WNW 00:04:45 40° N 00:07:59 10° ENE visible
07 May -0.8 21:43:31 11° ENE 21:43:31 11° ENE 21:43:40 10° ENE visible
07 May -2.9 23:16:27 38° NW 23:17:13 47° NNW 23:20:31 10° ENE visible
08 May -2.4 00:51:16 10° WNW 00:54:28 39° N 00:57:41 10° ENE visible
08 May -2.7 22:30:29 44° NE 22:30:29 44° NE 22:33:05 10° ENE visible
09 May -2.3 00:03:44 10° WNW 00:06:55 37° N 00:10:06 10° ENE visible
09 May -1.4 21:44:29 20° ENE 21:44:29 20° ENE 21:45:39 10° ENE visible
09 May -2.3 23:17:25 19° WNW 23:19:21 37° N 23:22:33 10° ENE visible
10 May -2.9 00:53:15 10° WNW 00:56:35 53° NNE 00:59:54 10° E visible
10 May -2.5 22:31:23 38° NNW 22:31:49 40° N 22:35:03 10° ENE visible
11 May -2.6 00:05:47 10° WNW 00:09:03 44° NNE 00:12:19 10° E visible
11 May -2.2 21:45:18 34° NE 21:45:18 34° NE 21:47:33 10° ENE visible
11 May -2.3 23:18:18 10° WNW 23:21:31 39° N 23:24:43 10° ENE visible
12 May -3.8 00:55:10 10° WNW 00:58:33 85° SSW 01:01:56 10° ESE visible
12 May -1.3 20:59:08 18° ENE 20:59:08 18° ENE 21:00:06 10° ENE visible
12 May -2.2 22:32:03 20° NW 22:33:57 37° N 22:37:08 10° ENE visible
13 May -3.5 00:07:43 10° WNW 00:11:06 70° NNE 00:14:28 10° ESE visible
13 May -2.3 21:45:40 33° NW 21:46:23 37° N 21:49:35 10° ENE visible
13 May -3.0 23:20:16 10° WNW 23:23:36 54° NNE 23:26:55 10° E visible
14 May -3.2 00:57:11 10° WNW 01:00:21 37° SW 01:03:30 10° SSE visible
14 May -2.0 17:43:40 10° SSE 17:45:29 14° SE 17:47:20 10° ESE visible
14 May -3.9 19:18:27 10° WSW 19:25:15 10° ENE 19:21:43 74° S visible
14 May -2.4 20:55:36 10° W 20:58:50 40° N 21:02:03 10° ENE visible
14 May -2.6 22:32:48 10° WNW 22:36:04 44° NNE 22:39:20 10° E visible
